This demonstration page uses our WeatherBlox Daily Observations layout. Learn more.

Left ArrowRight Arrow

Hourly Observations for January 11, 2015

Temp ( °F °C ) Dew Point ( °F °C ) Humidity (%) Winds ( mph kmh ) Pressure ( in mb ) Visibility ( mi km ) Precip ( " mm )
12:53 am 00:53 Clear 26 -3.3 17 -8.3 69 69 NE 3 6 30.53 1034 10 16 0.00 0.00
1:53 am 01:53 Clear 28 -2.2 18 -7.8 66 66 NE 5 7 30.53 1034 10 16 0.00 0.00
2:53 am 02:53 Clear 27 -2.8 19 -7.2 72 72 NE 3 6 30.54 1034 10 16 0.00 0.00
3:53 am 03:53 Clear 27 -2.8 17 -8.3 66 66 ENE 3 6 30.54 1034 10 16 0.00 0.00
4:53 am 04:53 Clear 29 -1.7 16 -8.9 58 58 Calm 30.53 1034 10 16 0.00 0.00
5:53 am 05:53 Clear 29 -1.7 15 -9.4 56 56 Calm 30.53 1034 10 16 0.00 0.00
6:53 am 06:53 Clear 28 -2.2 15 -9.4 58 58 NE 3 6 30.53 1034 10 16 0.00 0.00
7:33 am 07:33 Mostly Cloudy 28 -2.2 18 -7.8 66 66 NNE 3 6 30.59 1036 10 16 0.00 0.00
7:53 am 07:53 Cloudy 31 -0.6 18 -7.8 59 59 ENE 3 6 30.54 1034 10 16 0.00 0.00
8:53 am 08:53 Cloudy 33 0.6 16 -8.9 49 49 Calm 30.54 1034 10 16 0.00 0.00
9:53 am 09:53 Cloudy 38 3.3 17 -8.3 43 43 NE 6 9 30.54 1034 10 16 0.00 0.00
10:53 am 10:53 Cloudy 41 5 16 -8.9 36 36 ENE 9 15 30.54 1034 10 16 0.00 0.00
11:53 am 11:53 Cloudy 42 5.6 19 -7.2 40 40 NE 9 15 30.52 1034 10 16 0.00 0.00
12:53 pm 12:53 Cloudy 43 6.1 23 -5 45 45 ENE 12 19 30.47 1032 10 16 0.00 0.00
1:53 pm 13:53 Cloudy 44 6.7 24 -4.4 45 45 ENE 10 17 30.45 1031 10 16 0.00 0.00
2:53 pm 14:53 Cloudy 44 6.7 25 -3.9 47 47 ENE 12 19 30.43 1031 10 16 0.00 0.00
3:53 pm 15:53 Cloudy 45 7.2 27 -2.8 49 49 ENE 9 15 30.42 1030 10 16 0.00 0.00
4:53 pm 16:53 Cloudy 44 6.7 29 -1.7 55 55 E 7 11 30.43 1031 10 16 0.00 0.00
5:53 pm 17:53 Cloudy 43 6.1 30 -1.1 60 60 E 7 11 30.44 1031 10 16 0.00 0.00
6:53 pm 18:53 Cloudy 42 5.6 30 -1.1 62 62 ENE 7 11 30.44 1031 10 16 0.00 0.00
7:22 pm 19:22 Cloudy with Light Rain 43 6 32 0 66 66 E 7 11 30.45 1031 10 16 0.00 0.00
7:53 pm 19:53 Cloudy with Light Rain 41 5 34 1.1 76 76 E 5 7 30.45 1031 10 16 0.00 0.03
8:53 pm 20:53 Cloudy with Rain 39 3.9 35 1.7 86 86 E 5 7 30.46 1031 5 8 0.04 1.02
9:48 pm 21:48 Cloudy with Light Rain 39 4 36 2 87 87 NE 5 7 30.45 1031 8 13 0.00 0.00
9:53 pm 21:53 Cloudy with Light Rain 39 3.9 35 1.7 86 86 ENE 5 7 30.44 1031 7 11 0.01 0.25
10:53 pm 22:53 Cloudy with Mist and Fog 38 3.3 36 2.2 93 93 ENE 6 9 30.42 1030 4 6 0.00 0.03
11:22 pm 23:22 Cloudy with Mist and Fog 37 3 36 2 93 93 ENE 9 15 30.42 1030 4 6 0.00 0.00
11:53 pm 23:53 Cloudy with Mist and Fog 38 3.3 36 2.2 93 93 NE 7 11 30.39 1029 3 5 0.00 0.00

Powered by AerisWeather